Tracking 27111 objects as of 28-Mar-2023
HD Live streaming from Space Station
objects crossing your sky now

STARLINK-5270

Track STARLINK-5270 now!
10-day predictions
STARLINK-5270 is classified as:


NORAD ID: 55299
Int'l Code: 2023-010AG
Perigee: 363.8 km
Apogee: 368.7 km
Inclination: 70.0 °
Period: 91.7 minutes
Semi major axis: 6737 km
RCS: Unknown
Launch date: January 19, 2023
Source: United States (US)
Launch site: AIR FORCE WESTERN TEST RANGE (AFWTR)
Your satellite tracking list
Your tracking list is empty




NASA's NSSDC Master Catalog

Two Line Element Set (TLE):
1 55299U 23010AG  23086.84495181 -.00000476  00000-0 -21836-5 0  9999
2 55299  70.0011 239.6588 0003644 271.0988  88.9790 15.69935159 12269
Source of the keplerian elements: AFSPC